Kiev, Ukraine

6:09 PM EET on February 27, 2017 (GMT +0200)
Kiev

Weather History for 33345 - September, 2013

Change the Weather History Date:

Sunday, September 1, 2013

  Actual Average Record
Temperature  
Mean Temperature 62 °F -  
Max Temperature 74 °F - - ()
Min Temperature 51 °F - - ()
Degree Days  
Heating Degree Days 2    
Growing Degree Days 12 (Base 50)    
Moisture  
Dew Point 54 °F    
Average Humidity 80    
Maximum Humidity 100    
Minimum Humidity 40    
Precipitation  
Precipitation 0.12 in 0.06 in - ()
Sea Level Pressure  
Sea Level Pressure 29.91 in    
Wind  
Wind Speed 6 mph ()    
Max Wind Speed 13 mph    
Max Gust Speed 20 mph    
Visibility 7.2 miles    
Events Fog , Rain    
T = Trace of Precipitation, MM = Missing Value Source: Averaged Metar Reports

Daily Weather History Graph

Daily Weather History Graph

Search for Another Location

Airport or City:

Trip Planner

Search our weather history database for the weather conditions in past years. The results will help you decide how hot, cold, wet, or windy it might be!

Date:

Astronomy

Sep. 01, 2013 Rise Set
Actual Time 6:12 AM EEST 7:42 PM EEST
Civil Twilight 5:38 AM EEST 8:16 PM EEST
Nautical Twilight 4:56 AM EEST 8:58 PM EEST
Astronomical Twilight 4:11 AM EEST 9:43 PM EEST
Moon 2:00 AM EEST (9/1) 5:21 PM EEST (9/1)
Length of Visible Light 14h 38m
Length of Day
13h 30m
Waning Crescent, 16% of the Moon is Illuminated
Sep 1
Waning Crescent
Sep 5
New
Sep 12
First Quarter
Sep 19
Full
Sep 27
Last Quarter

Hourly Weather History & Observations

Time (EEST) Temp. Dew Point Humidity Pressure Visibility Wind Dir Wind Speed Gust Speed Precip Events Conditions
12:00 AM 55 °F 52 °F 88% 29.90 in 12 mi West 4.5 mph - -   Partly Cloudy
12:00 AM 55.4 °F 53.6 °F 94% 29.89 in - West 4.5 mph - N/A   Clear
12:30 AM 55.4 °F 53.6 °F 94% 29.89 in - WSW 4.5 mph - N/A   Clear
1:00 AM 53.6 °F 53.6 °F 100% 29.89 in - West 4.5 mph - N/A   Clear
1:30 AM 53.6 °F 51.8 °F 94% 29.89 in 6.2 mi West 6.7 mph - N/A Fog Shallow Fog
2:00 AM 51.8 °F 51.8 °F 100% 29.89 in 6.2 mi WSW 6.7 mph - N/A Fog Shallow Fog
2:30 AM 51.8 °F 51.8 °F 100% 29.89 in 6.2 mi WSW 4.5 mph - N/A Fog Shallow Fog
3:00 AM 54 °F 52 °F 90% 29.89 in 12 mi NW 4.5 mph - -  
3:00 AM 51.8 °F 51.8 °F 100% 29.89 in - WSW 4.5 mph - N/A   Clear
3:30 AM 51.8 °F 51.8 °F 100% 29.89 in - WSW 4.5 mph - N/A   Clear
4:00 AM 51.8 °F 51.8 °F 100% 29.89 in 3.7 mi West 4.5 mph - N/A Fog Shallow Fog
4:30 AM 51.8 °F 50.0 °F 94% 29.89 in 6.2 mi WSW 4.5 mph - N/A Fog Shallow Fog
5:00 AM 50.0 °F 50.0 °F 100% 29.89 in 5.0 mi WSW 4.5 mph - N/A Fog Shallow Fog
5:30 AM 50.0 °F 50.0 °F 100% 29.89 in 5.6 mi WSW 4.5 mph - N/A Fog Shallow Fog
6:00 AM 53 °F 51 °F 89% 29.90 in 12 mi NW 4.5 mph - -   Clear
6:00 AM 50.0 °F 50.0 °F 100% 29.89 in - West 6.7 mph - N/A   Clear
6:30 AM 50.0 °F 50.0 °F 100% 29.89 in - West 6.7 mph - N/A   Clear
7:00 AM 51.8 °F 50.0 °F 94% 29.89 in 5.6 mi West 6.7 mph - N/A   Unknown
7:30 AM 53.6 °F 51.8 °F 94% 29.89 in 5.0 mi West 6.7 mph - N/A   Unknown
8:00 AM 53.6 °F 51.8 °F 94% 29.89 in - West 8.9 mph - N/A   Clear
8:30 AM 57.2 °F 53.6 °F 88% 29.92 in - West 8.9 mph - N/A   Clear
9:00 AM 57 °F 53 °F 81% 29.92 in 12 mi WNW 4.5 mph - -   Scattered Clouds
9:00 AM 59.0 °F 53.6 °F 82% 29.92 in - West 8.9 mph - N/A   Clear
9:30 AM 60.8 °F 55.4 °F 82% 29.92 in - West 8.9 mph - N/A   Clear
10:00 AM 62.6 °F 55.4 °F 77% 29.92 in - WNW 8.9 mph - N/A   Clear
10:30 AM 62.6 °F 55.4 °F 77% 29.92 in - West 8.9 mph - N/A   Clear
11:00 AM 66.2 °F 57.2 °F 73% 29.92 in - West 6.7 mph - N/A   Clear
11:30 AM 68.0 °F 55.4 °F 64% 29.92 in - WNW 8.9 mph - N/A   Clear
12:00 PM 69 °F 54 °F 50% 29.90 in 12 mi NW 6.7 mph - -   Scattered Clouds
12:00 PM 69.8 °F 55.4 °F 60% 29.92 in - WNW 11.2 mph - N/A   Clear
12:30 PM 69.8 °F 55.4 °F 60% 29.92 in 6.2 mi NW 13.4 mph - N/A   Scattered Clouds
1:00 PM 69.8 °F 55.4 °F 60% 29.92 in 6.2 mi NW 13.4 mph - N/A   Scattered Clouds
1:30 PM 71.6 °F 53.6 °F 53% 29.92 in 6.2 mi WNW 13.4 mph - N/A   Scattered Clouds
2:00 PM 71.6 °F 55.4 °F 57% 29.92 in 6.2 mi WNW 13.4 mph - N/A   Mostly Cloudy
2:30 PM 73.4 °F 53.6 °F 50% 29.92 in 6.2 mi WNW 13.4 mph - N/A   Mostly Cloudy
3:00 PM 71 °F 52 °F 40% 29.90 in 12 mi NNW 6.7 mph - -   Partly Cloudy
3:00 PM 69.8 °F 53.6 °F 56% 29.92 in 6.2 mi WNW 13.4 mph - N/A   Mostly Cloudy
3:30 PM 71.6 °F 53.6 °F 53% 29.89 in 6.2 mi WNW 8.9 mph - N/A   Mostly Cloudy
4:00 PM 71.6 °F 55.4 °F 57% 29.89 in 6.2 mi West 11.2 mph - N/A   Mostly Cloudy
4:30 PM 73.4 °F 53.6 °F 50% 29.89 in 6.2 mi WNW 11.2 mph - N/A   Mostly Cloudy
5:00 PM 73.4 °F 55.4 °F 53% 29.89 in 6.2 mi West 8.9 mph - N/A   Mostly Cloudy
5:30 PM 73.4 °F 53.6 °F 50% 29.89 in 6.2 mi West 13.4 mph - N/A   Mostly Cloudy
6:00 PM 72 °F 55 °F 44% 29.89 in 12 mi SW 8.9 mph - -   Mostly Cloudy
6:00 PM 69.8 °F 55.4 °F 60% 29.89 in 6.2 mi SW 8.9 mph - N/A   Mostly Cloudy
6:30 PM 66.2 °F 57.2 °F 73% 29.92 in 1.6 mi West 8.9 mph 20.1 mph N/A Rain Light Rain Showers
7:00 PM 62.6 °F 57.2 °F 82% 29.92 in 6.2 mi WNW 11.2 mph - N/A Rain Light Rain Showers
7:30 PM 60.8 °F 57.2 °F 88% 29.92 in 6.2 mi WSW 6.7 mph - N/A Rain Light Rain Showers
8:00 PM 60.8 °F 55.4 °F 82% 29.92 in 6.2 mi WSW 6.7 mph - N/A   Mostly Cloudy
8:30 PM 57.2 °F 55.4 °F 94% 29.92 in 6.2 mi West 4.5 mph - N/A   Mostly Cloudy
9:00 PM 60 °F 54 °F 76% 29.93 in 12 mi West 4.5 mph - -   Partly Cloudy
9:00 PM 57.2 °F 55.4 °F 94% 29.92 in - SW 4.5 mph - N/A   Clear
9:30 PM 57.2 °F 55.4 °F 94% 29.92 in - WSW 4.5 mph - N/A   Clear
10:00 PM 57.2 °F 55.4 °F 94% 29.92 in 6.2 mi West 4.5 mph - N/A   Mostly Cloudy
10:30 PM 57.2 °F 55.4 °F 94% 29.92 in 6.2 mi West 6.7 mph - N/A   Mostly Cloudy
11:00 PM 59.0 °F 55.4 °F 88% 29.92 in - West 6.7 mph - N/A   Clear
11:30 PM 59.0 °F 57.2 °F 94% 29.92 in - West 8.9 mph - N/A   Clear